Regional Weather Roundup
Issued by NWS

Home | Current Version | Previous Version | Text Only | Print | Product List | Glossary On
Versions: 1 2 3 4 5 6 7 8 9 10 11 12 13 14 15 16 17 18 19 20 21 22 23 24 25 26 27 28 29 30 31 32 33 34 35 36 37 38 39 40 41 42 43 44 45 46
000
ASUS42 KFFC 292003
RWRGA
WEATHER ROUNDUP FOR GEORGIA
NATIONAL WEATHER SERVICE PEACHTREE CITY GA
300 PM EST THU JAN 29 2015

NOTE: "FAIR" INDICATES FEW OR NO CLOUDS BELOW 12,000 FEET WITH NO
SIGNIFICANT WEATHER AND/OR OBSTRUCTIONS TO VISIBILITY.

* = USE WITH CAUTION. THE STATIONS MARKED WITH AN ASTERISK MAY NOT
REPORT WEATHER SUCH AS PRECIPITATION, FOG, OR THUNDER AND ARE NOT
QUALITY CONTROLLED BY NWS.

THE REMARK "TC" DENOTES TEMPERATURE READING IN DEGREES CELSIUS.

GAZ001>058-292100-
NORTH GEORGIA

CITY           SKY/WX    TMP DP  RH WIND       PRES   REMARKS
ATLANTA        PTSUNNY   58  25  28 S12       30.14F
ATHENS         MOSUNNY   57  23  26 SW12G20   30.15F
CHAMBLEE       PTSUNNY   55  28  35 S13       30.14F
PEACHTREE CITY PTSUNNY   60  26  27 S7        30.15F
ROME           MOSUNNY   59  34  39 S8        30.08F
WEST ATLANTA   PTSUNNY   57  27  31 S7        30.13F
GAINESVILLE    PTSUNNY   55  25  31 S10       30.14F
CARTERSVILLE   PTSUNNY   56  31  38 SE9       30.12F


CITY           SKY/WX    TMP DP  RH WIND       PRES   REMARKS
DALTON*        SUNNY     54  34  47 S10       30.09F
LAWRENCEVILLE* SUNNY     55  25  30 SW6       30.14F
MARIETTA       PTSUNNY   56  28  34 SE7       30.13F
KENNESAW*      CLOUDY   N/A N/A N/A SW10      30.14F
$$

GAZ059>098-102>109-292100-
CENTRAL GEORGIA

CITY           SKY/WX    TMP DP  RH WIND       PRES   REMARKS
AUGUSTA-BUSH   MOSUNNY   57  23  26 VRB7      30.22F
AUGUSTA-DANIEL MOSUNNY   57  23  26 S13       30.21F
COLUMBUS       MOSUNNY   60  30  32 SW9       30.19F
MACON          PTSUNNY   57  29  34 S7G17     30.20F
ROBINS AFB     PTSUNNY   60  29  30 S9        30.21F


CITY           SKY/WX    TMP DP  RH WIND       PRES   REMARKS
LAGRANGE*      MOSUNNY   65  34  31 SW8G17    30.15F
SYLVANIA*      PTSUNNY   58  37  44 SW9       30.23F
MILLEDGEVILLE* PTSUNNY   59  32  36 CALM      30.19F
$$

GAZ099>101-110>166-292100-
SOUTH GEORGIA

CITY           SKY/WX    TMP DP  RH WIND       PRES   REMARKS
SAVANNAH       CLOUDY    59  39  47 S9        30.24F
VALDOSTA       SUNNY     64  34  32 S8        30.23F
ALMA           PTSUNNY   62  33  33 S9        30.24S
ST SIMONS      PTSUNNY   56  42  59 SE7       30.24F
FT STEWART     PTSUNNY   62  37  40 S8        30.22F
ALBANY         SUNNY     62  29  28 SW12      30.24F
HUNTER AFB     PTSUNNY   59  42  53 SE10      30.22F
MOODY AFB      SUNNY     64  29  26 S5        30.23F
BRUNSWICK      PTSUNNY   61  43  51 S5        30.25S


CITY           SKY/WX    TMP DP  RH WIND       PRES   REMARKS
BAINBRIDGE*    SUNNY     66  36  32 W7        30.24F
MOULTRIE*      SUNNY     63  32  31 SW6       30.24F
VIDALIA*       PTSUNNY   59  36  41 S9        30.23F
WAYCROSS*      PTSUNNY   66  42  41 W6        30.24R
DOUGLAS*       PTSUNNY   63  30  29 SW9       30.25F
$$


USA.gov is the U.S. government's official web portal to all federal, state and local government web resources and services.